Tracking 22223 objects as of 26-Jan-2021
HD Live streaming from Space Station
objects crossing your sky now

ECHOSTAR 6

Track ECHOSTAR 6 now!
ECHOSTAR 6 is classified as:


NORAD ID: 26402
Int'l Code: 2000-038A
Perigee: 36,195.2 km
Apogee: 36,234.2 km
Inclination: 6.7 °
Period: 1,457.7 minutes
Semi major axis: 42585 km
RCS: 25.1188 m2 (large)
Launch date: July 14, 2000
Source: United States (US)
Launch site: AIR FORCE EASTERN TEST RANGE (AFETR)

CONUS, Hawaii, Alaska and Puerto Rico; 32 Ku-band transponders
aabbcc
Your satellite tracking list
Your tracking list is empty




NASA's NSSDC Master Catalog

Two Line Element Set (TLE):
1 26402U 00038A   21025.65854434  .00000048  00000-0  00000-0 0  9996
2 26402   6.7249  60.7390 0004576 278.6838  74.4158  0.98788808 75055
Source of the keplerian elements: AFSPC